Voltar ao catálogo

DELTA 1 DEB

AtivoSSO
NORAD 42652·DEBRIS·🇺🇸 United States

Lançado Jun 12, 1975 de Vandenberg Space Force Base

Loading…

Próximas Passagens (próximas 24 horas)

TLE

AtualizadoSource: Space-Track

Época: Sep 13, 2026, 05:00 UTC

1 42652U 75052MM  26256.20857730  .00000166  00000-0  41573-3 0  9997
2 42652  99.7890  38.7028 0073587 120.4441   3.6336 13.33228341622985

Acompanhe DELTA 1 DEB em tempo real com AllMySat

Download on the App Store